Weather History for Orangeburg, SC

Change the Weather History Date:

Thursday, July 31, 2014

  Actual Average Record
Temperature  
Mean Temperature 76 °F 82 °F  
Max Temperature 80 °F 92 °F 102 °F (1954)
Min Temperature 72 °F 72 °F 61 °F (1997)
Degree Days  
Heating Degree Days 0 0  
Month to date heating degree days 0 0  
Since 1 June heating degree days 0 1  
Since 1 July heating degree days 0 0  
Cooling Degree Days 11 17  
Month to date cooling degree days 506 521  
Year to date cooling degree days 1303 1222  
Since 1 June cooling degree days 948 919  
Growing Degree Days 26 (Base 50)    
Moisture  
Dew Point 69 °F    
Average Humidity 81    
Maximum Humidity 90    
Minimum Humidity 74    
Precipitation  
Precipitation 0.00 in 0.14 in 1.65 in (1966)
Month to date precipitation 5.38 5.29  
Year to date precipitation 31.12 28.03  
Sea Level Pressure  
Sea Level Pressure 30.05 in    
Wind  
Wind Speed 7 mph (ENE)    
Max Wind Speed 16 mph    
Max Gust Speed 22 mph    
Visibility 10 miles    
Events Thunderstorm    
T = Trace of Precipitation, MM = Missing Value Source: NWS Daily Summary

Daily Weather History Graph

Daily Weather History Graph

Search for Another Location

Airport:

Trip Planner

Search our weather history database for the weather conditions in past years. The results will help you decide how hot, cold, wet, or windy it might be!

Date:

Astronomy

Jul. 31, 2014 Rise Set
Actual Time 6:35 AM EDT 8:23 PM EDT
Civil Twilight 6:08 AM EDT 8:51 PM EDT
Nautical Twilight 5:35 AM EDT 9:23 PM EDT
Astronomical Twilight 5:00 AM EDT 9:58 PM EDT
Moon 10:45 AM EDT (7/31) 10:52 PM EDT (7/31)
Length of Visible Light 14h 43m
Length of Day
13h 48m
Waxing Crescent, 19% of the Moon is Illuminated
Jul 31
Waxing Crescent
Aug 3
First Quarter
Aug 10
Full
Aug 17
Last Quarter
Aug 25
New

Hourly Weather History & Observations

Time (EDT) Temp. Heat Index Dew Point Humidity Pressure Visibility Wind Dir Wind Speed Gust Speed Precip Events Conditions
12:53 AM 73.0 °F - 66.9 °F 81% 30.04 in 10.0 mi NE 3.5 mph - N/A   Overcast
3:53 AM 72.0 °F - 66.9 °F 84% 30.02 in 10.0 mi ENE 3.5 mph - N/A   Overcast
4:53 AM 72.0 °F - 68.0 °F 87% 30.02 in 10.0 mi NE 8.1 mph - N/A   Overcast
5:53 AM 72.0 °F - 66.9 °F 84% 30.02 in 10.0 mi ENE 5.8 mph - N/A   Overcast
6:53 AM 72.0 °F - 66.9 °F 84% 30.04 in 10.0 mi NE 8.1 mph - N/A   Scattered Clouds
7:53 AM 73.0 °F - 68.0 °F 84% 30.05 in 10.0 mi ENE 4.6 mph - N/A   Overcast
8:53 AM 73.9 °F - 68.0 °F 82% 30.05 in 10.0 mi ENE 6.9 mph - N/A   Mostly Cloudy
9:53 AM 75.0 °F - 69.1 °F 82% 30.06 in 10.0 mi ENE 5.8 mph - N/A   Overcast
10:53 AM 75.9 °F - 70.0 °F 82% 30.06 in 10.0 mi ENE 6.9 mph - N/A   Overcast
11:53 AM 79.0 °F - 71.1 °F 77% 30.06 in 10.0 mi East 8.1 mph - N/A   Overcast
12:53 PM 80.1 °F 83.6 °F 71.1 °F 74% 30.06 in 10.0 mi ENE 6.9 mph - N/A   Overcast
1:41 PM 79.0 °F - 72.0 °F 79% 30.07 in 10.0 mi ESE 6.9 mph - N/A   Overcast
1:53 PM 80.1 °F 83.8 °F 72.0 °F 76% 30.06 in 10.0 mi SE 5.8 mph - N/A   Overcast
2:06 PM 80.1 °F 83.8 °F 72.0 °F 76% 30.07 in 10.0 mi SE 4.6 mph - N/A   Mostly Cloudy
2:38 PM 78.1 °F - 70.0 °F 76% 30.07 in 10.0 mi SSE 12.7 mph 19.6 mph N/A   Mostly Cloudy
2:53 PM 77.0 °F - 68.0 °F 74% 30.06 in 10.0 mi SSE 12.7 mph 21.9 mph N/A   Overcast
3:07 PM 75.9 °F - 68.0 °F 76% 30.06 in 10.0 mi SSE 12.7 mph - N/A Thunderstorm Mostly Cloudy
3:53 PM 77.0 °F - 70.0 °F 79% 30.05 in 10.0 mi ENE 5.8 mph - N/A   Overcast
4:08 PM 75.9 °F - 71.1 °F 85% 30.05 in 10.0 mi East 6.9 mph - N/A   Overcast
4:53 PM 77.0 °F - 70.0 °F 79% 30.03 in 10.0 mi ENE 6.9 mph - N/A   Mostly Cloudy
6:53 PM 77.0 °F - 70.0 °F 79% 30.04 in 10.0 mi East 9.2 mph - N/A   Mostly Cloudy
7:53 PM 75.9 °F - 70.0 °F 82% 30.05 in 10.0 mi ENE 6.9 mph - N/A   Mostly Cloudy
8:23 PM 75.0 °F - 70.0 °F 84% 30.06 in 10.0 mi ENE 5.8 mph - N/A   Mostly Cloudy
8:53 PM 75.0 °F - 69.1 °F 82% 30.05 in 10.0 mi ENE 5.8 mph - N/A   Overcast
10:17 PM 73.0 °F - 66.9 °F 81% 30.06 in 10.0 mi NE 5.8 mph - N/A   Mostly Cloudy
10:44 PM 73.0 °F - 68.0 °F 84% 30.07 in 10.0 mi NE 5.8 mph - N/A   Overcast
10:53 PM 73.0 °F - 68.0 °F 84% 30.06 in 10.0 mi ENE 3.5 mph - N/A   Mostly Cloudy
11:53 PM 73.0 °F - 68.0 °F 84% 30.05 in 10.0 mi NE 5.8 mph - N/A   Overcast